Theta_e
330 329 329 328 333 329 333 332 328 331 330 329 330 330 332 334 342 347 339 341 341 339 338 338 338 337 335 332 330 331 333 331 333 332 330 330 329 329 327 327 325 326 330 330 330 331 330 329 326
329 329 328 328 334 335 333 329 331 330 329 328 327 327 329 335 338 338 338 342 342 339 337 338 337 336 335 332 329 331 332 335 333 330 327 326 329 327 327 326 326 327 329 329 329 328 332 330 326
329 329 326 331 332 336 333 329 328 329 329 330 330 327 331 335 335 339 338 342 341 339 339 337 337 336 336 331 328 330 331 330 329 330 331 328 328 327 326 325 325 326 326 325 328 325 327 332 327
328 327 325 331 334 331 329 328 328 329 330 330 329 336 333 335 336 339 339 341 339 338 338 337 337 337 334 328 328 329 331 329 327 329 330 329 329 327 325 324 324 324 324 325 325 323 323 328 328
329 325 331 332 333 331 328 327 327 330 329 329 331 337 336 336 339 339 339 340 338 338 338 338 338 336 330 327 327 328 329 328 329 332 330 332 330 326 324 323 324 324 324 323 323 323 322 321 329
328 325 332 333 334 332 330 330 327 328 328 328 332 335 336 336 338 338 339 339 339 338 337 337 337 334 330 327 326 327 327 328 329 330 329 331 329 327 325 323 324 323 324 323 320 319 320 320 324
329 329 335 331 332 333 333 330 329 328 329 330 328 335 335 335 338 338 338 339 339 337 337 336 336 334 331 328 325 326 325 327 328 330 328 328 331 330 325 325 324 324 323 324 322 316 315 318 320
325 327 332 331 332 332 331 329 327 329 331 329 328 335 337 336 338 338 339 338 339 337 337 336 336 335 334 330 327 325 325 325 327 329 327 326 328 329 329 327 325 324 324 323 323 321 321 315 313
322 329 332 330 331 329 328 329 328 328 328 330 331 332 334 337 337 337 338 338 339 338 337 336 335 335 334 334 333 332 325 323 324 324 325 325 326 329 329 327 326 325 324 323 323 323 323 322 318
322 325 332 326 324 326 326 327 328 329 329 332 332 333 337 337 337 337 337 338 338 337 337 336 336 335 335 334 334 333 333 330 324 324 324 324 325 326 329 329 327 326 325 324 323 322 323 324 323
323 323 327 323 324 323 325 326 325 325 329 329 332 332 334 336 336 336 337 337 337 336 334 334 336 335 335 334 334 333 332 331 329 326 324 324 326 325 327 329 328 327 326 324 323 322 322 322 323
326 323 323 325 322 324 325 324 324 324 324 323 327 328 331 332 333 335 336 336 336 337 337 336 335 334 336 335 334 333 333 332 330 330 329 329 328 328 325 326 326 326 325 324 324 322 323 324 324
326 326 324 323 323 323 324 324 324 325 321 319 320 321 322 322 327 332 332 333 335 336 336 336 336 336 334 335 336 334 334 333 332 331 331 329 329 329 328 326 326 326 325 325 325 324 324 324 325
324 325 324 323 324 324 325 325 324 324 323 322 320 319 319 319 323 325 328 329 330 331 333 334 335 335 335 335 333 335 335 334 334 332 332 331 330 330 329 328 327 326 326 325 325 324 324 324 325
325 326 324 324 324 325 324 325 325 321 321 322 320 319 319 319 322 322 323 324 327 329 329 330 331 332 334 334 335 335 333 335 335 334 333 332 331 331 330 329 328 327 327 325 324 324 324 324 323
325 324 325 322 324 324 323 323 323 321 320 320 319 318 318 318 320 323 324 324 324 324 324 324 325 328 332 333 333 335 335 335 334 335 334 334 332 331 331 330 329 328 328 327 326 325 324 324 323
325 326 325 324 320 323 323 325 322 319 318 318 318 318 318 317 319 322 324 323 320 320 320 319 319 319 319 320 327 332 333 335 335 334 336 335 333 332 331 330 329 329 328 327 327 326 326 325 325
326 327 324 322 320 319 324 324 322 321 320 319 318 317 317 317 316 320 319 318 318 318 317 317 318 317 317 318 318 321 330 333 334 335 335 334 332 333 333 332 331 329 328 328 327 327 327 326 326
322 321 322 319 319 322 322 322 320 318 317 316 316 317 318 317 317 317 316 315 315 315 315 315 314 314 315 316 317 318 326 330 332 334 335 332 332 330 331 332 332 331 330 330 329 328 327 327 327
325 325 323 320 319 322 321 321 318 318 317 316 314 314 314 314 315 312 313 313 313 312 313 313 315 315 317 320 318 317 321 327 329 331 333 331 332 331 330 330 332 332 331 330 330 329 328 328 328
322 324 323 322 319 318 321 320 321 319 318 318 317 315 313 314 314 310 310 310 310 310 311 312 312 314 314 319 322 318 320 328 330 330 332 333 332 330 329 329 329 330 331 331 330 330 329 328 327
319 317 320 321 321 321 319 320 316 314 315 316 318 317 315 314 312 309 307 307 307 308 309 309 309 311 314 318 322 324 325 328 327 328 329 329 330 329 328 329 329 329 329 329 329 329 328 327 326
319 318 320 320 320 322 321 321 317 315 314 313 314 314 315 312 310 307 305 306 306 306 306 305 306 308 309 313 317 321 323 324 324 324 324 320 319 320 320 320 322 323 323 323 323 324 325 325 326
319 321 321 320 323 326 320 321 317 316 315 312 312 312 311 308 306 304 304 304 303 303 303 302 302 303 304 307 309 311 312 313 314 312 310 309 310 310 308 309 311 312 314 315 316 317 317 316 318
319 320 317 325 324 320 315 320 319 313 312 312 310 311 309 307 305 303 301 301 301 301 301 300 299 299 301 301 303 303 304 306 304 304 302 302 302 301 300 302 303 303 302 304 307 308 307 306 307
319 320 319 319 320 317 312 317 315 313 312 312 310 309 308 307 305 302 300 300 300 299 299 298 297 297 297 298 297 298 299 299 298 297 297 296 295 295 296 297 297 296 297 299 299 299 297 297 296
317 321 317 317 309 316 315 312 312 314 314 312 311 309 308 306 304 301 299 299 298 297 296 296 295 295 295 293 294 294 294 294 294 293 293 293 292 292 293 293 293 293 294 294 293 293 292 293 292
316 315 320 317 320 311 311 313 314 314 314 312 311 309 307 305 302 300 297 297 296 295 295 295 294 293 293 292 291 290 290 290 290 290 290 289 290 290 291 290 290 290 290 290 290 290 290 290 290
319 319 319 317 316 317 315 311 307 311 309 313 311 309 307 305 302 298 296 295 295 294 294 294 293 291 291 290 289 289 288 288 288 288 288 288 288 288 288 288 288 288 288 288 288 288 288 289 289
316 317 319 321 315 315 315 315 309 309 311 312 310 308 306 303 300 297 295 294 293 293 292 292 291 290 289 288 287 287 287 287 286 286 286 286 286 286 286 286 286 286 286 286 286 286 287 287 286
Wind_Speed
25 22 14 3 4 5 2 3 5 3 4 1 3 11 9 3 3 4 10 13 17 17 17 15 12 10 4 6 8 8 9 11 10 9 8 9 10 11 10 10 11 9 10 10 10 10 6 7 9
24 24 4 2 4 4 2 3 9 4 4 4 8 6 5 4 4 8 8 17 14 14 15 14 13 9 4 4 8 9 9 10 9 7 9 8 10 9 9 11 10 10 10 8 7 8 8 7 7
25 12 3 3 3 4 4 3 7 3 4 3 3 5 4 2 6 8 15 20 16 14 12 12 12 9 4 4 8 10 10 8 6 6 8 7 9 9 7 8 7 7 7 5 5 4 8 10 6
12 6 4 5 6 5 8 7 7 6 2 4 5 7 5 8 3 12 17 20 15 14 11 9 10 6 3 4 6 9 9 8 7 8 7 8 9 8 9 8 7 6 6 4 3 1 3 5 3
4 3 4 4 6 3 4 6 8 5 4 5 6 2 4 9 17 16 17 17 12 14 11 10 9 4 3 4 5 7 8 7 6 8 6 8 8 7 7 7 7 6 4 4 3 3 3 2 4
4 3 3 3 5 4 3 4 5 6 4 6 6 5 2 12 17 15 16 16 12 13 11 8 9 6 5 4 5 6 6 9 6 8 6 7 7 7 6 6 5 6 6 5 3 3 4 4 5
3 3 1 5 6 4 2 4 4 5 4 5 5 5 3 9 14 15 14 16 13 12 10 9 6 7 6 6 6 6 6 10 8 8 6 6 8 8 7 7 7 6 5 6 4 4 4 6 7
3 3 5 3 6 4 3 2 3 7 2 3 5 5 5 7 15 15 17 14 13 12 10 10 8 6 4 6 7 8 8 9 12 11 10 8 8 10 10 9 10 8 7 7 7 6 5 7 8
4 4 4 6 5 4 3 3 3 1 6 4 3 4 10 19 16 14 18 18 16 14 13 12 11 9 8 7 6 7 9 10 13 13 14 14 11 11 13 13 11 11 11 11 10 10 10 9 10
4 3 2 3 2 5 4 4 3 3 5 4 6 8 16 17 17 15 15 15 14 13 18 17 16 13 13 12 11 12 12 13 15 14 15 15 16 14 13 11 11 12 13 14 14 15 13 13 13
3 4 2 4 4 4 3 3 2 3 1 5 9 10 12 13 15 15 16 17 18 13 13 18 19 18 17 17 16 16 15 14 16 16 17 16 15 17 16 16 15 15 15 16 17 17 17 17 17
1 3 3 3 3 3 2 2 2 3 4 6 8 12 12 10 13 18 19 19 17 20 16 12 13 19 20 20 21 20 19 18 15 16 16 17 17 16 18 19 19 18 19 17 15 18 19 17 15
4 2 3 5 5 1 2 0 1 1 5 9 11 9 8 9 15 17 14 12 17 18 18 17 15 16 16 24 21 24 23 21 19 18 17 19 22 22 20 21 21 20 17 19 17 17 18 18 18
1 2 3 5 5 2 2 3 2 5 6 6 7 9 8 8 13 11 11 11 13 14 16 17 20 19 20 20 21 26 23 25 24 23 23 21 24 25 25 23 23 22 20 20 20 19 19 21 21
2 1 5 1 5 3 4 5 8 8 5 8 8 9 9 9 15 14 12 12 16 17 15 17 20 21 24 24 24 23 23 25 25 27 26 25 25 25 25 25 24 23 22 23 23 21 21 22 23
5 3 2 5 6 4 8 7 9 10 8 10 10 8 8 8 14 13 12 14 15 16 14 15 13 17 22 25 25 27 27 25 29 25 26 28 28 27 25 25 26 24 24 23 23 23 24 25 24
2 3 5 6 8 7 8 5 8 5 5 10 10 9 8 7 7 13 15 16 9 3 6 5 4 4 6 10 18 26 28 28 26 26 27 25 26 28 27 26 25 25 24 23 23 23 23 25 26
6 6 5 6 3 7 8 8 7 7 4 7 7 7 7 6 8 9 4 5 8 7 4 5 8 11 13 13 14 19 28 27 26 26 24 30 27 26 20 28 29 25 24 25 25 24 24 23 24
3 3 4 3 5 8 8 7 9 8 5 7 8 8 9 9 10 2 9 9 5 2 4 9 13 15 16 18 17 16 24 28 25 24 24 22 24 24 27 24 27 30 27 29 27 26 24 24 25
7 6 4 6 4 1 6 9 9 7 7 8 9 11 10 5 5 13 11 7 5 6 7 8 9 11 12 13 15 14 16 22 25 24 22 22 20 21 22 26 21 24 28 27 26 24 23 23 22
6 10 3 5 7 3 4 9 8 8 15 16 17 13 9 11 9 7 11 9 6 8 9 10 10 12 13 13 13 15 11 15 12 14 20 17 16 14 15 20 25 25 19 22 23 22 24 18 17
9 6 6 4 3 5 2 8 7 8 10 7 15 16 11 9 5 7 11 9 8 9 7 7 9 11 10 9 8 5 7 6 2 5 5 10 11 9 7 11 12 11 16 15 17 18 18 19 14
6 6 8 9 6 3 6 5 5 6 7 8 11 11 12 7 11 9 11 13 10 8 7 6 5 7 8 8 7 6 9 12 12 15 15 14 12 10 8 8 9 7 6 4 6 5 4 7 14
7 5 5 5 2 9 8 8 6 9 13 6 6 6 8 9 8 9 15 13 10 7 6 6 6 8 8 8 10 11 13 12 12 11 12 10 9 10 10 7 7 6 5 6 6 7 10 13 12
6 7 0 3 5 8 4 9 18 6 7 5 9 10 9 8 9 8 7 11 9 7 6 6 6 10 7 9 9 9 10 10 11 9 9 8 8 9 9 7 7 8 8 8 6 8 9 10 11
7 13 5 7 4 3 7 8 6 13 14 7 7 9 8 8 7 8 10 13 11 9 7 6 7 8 6 7 9 9 8 9 10 9 10 10 11 11 9 9 10 11 11 12 12 13 13 12 13
6 13 6 3 3 2 4 7 8 6 5 5 7 8 10 9 9 10 12 15 13 12 10 9 7 7 7 8 9 9 10 10 11 11 11 11 11 11 10 11 11 12 12 12 13 14 15 13 15
7 6 6 5 3 4 7 6 9 2 6 5 7 10 8 7 8 8 10 16 15 13 12 10 9 9 8 8 9 10 10 10 11 11 11 11 11 11 11 12 12 13 14 14 14 16 16 17 17
7 7 6 4 7 5 2 6 7 14 10 10 11 7 9 10 9 9 11 18 17 15 14 13 11 11 10 9 10 10 10 9 10 10 10 10 10 11 13 13 14 15 16 16 17 18 19 19 19
19 13 13 5 6 6 6 11 4 7 3 7 9 9 8 8 9 9 14 20 20 19 17 17 14 13 11 11 10 10 10 10 9 10 10 10 11 12 13 13 15 17 17 17 20 20 18 19 19
Wind_Direction
338 342 336 23 57 72 58 42 99 59 52 67 25 93 113 76 52 142 130 136 142 146 151 149 144 121 105 118 135 123 124 125 120 115 107 102 105 103 94 90 84 85 92 84 66 62 83 90 84
339 335 20 74 85 80 33 133 81 87 138 123 88 107 64 78 80 124 121 151 144 139 154 152 147 133 155 140 144 139 136 139 128 120 106 98 118 113 111 112 110 110 122 94 81 72 76 128 100
336 329 71 98 70 131 132 130 126 119 71 92 89 71 76 22 114 136 139 152 138 133 150 159 151 156 190 149 152 156 149 148 153 151 138 122 133 135 125 120 124 122 121 106 74 79 71 137 101
326 1 15 79 72 9 122 150 146 131 49 68 113 78 62 37 93 140 138 145 140 140 154 159 163 165 172 152 154 170 166 173 165 177 163 151 146 154 146 145 142 140 160 140 105 143 120 109 123
360 68 53 92 95 80 99 148 147 146 132 79 114 79 91 82 114 128 146 152 154 144 164 175 174 178 165 150 156 168 184 191 180 171 176 173 170 164 167 177 167 171 155 160 184 231 202 188 159
7 74 59 119 115 99 47 53 111 105 103 91 76 95 79 133 133 138 151 158 155 151 164 182 186 185 175 167 166 174 182 202 186 190 195 199 201 193 197 196 207 179 182 207 227 222 216 226 214
68 55 240 111 127 77 115 35 43 98 102 42 164 88 142 122 136 144 150 146 152 148 161 178 204 205 195 189 184 186 188 198 201 205 213 221 223 225 207 215 224 219 236 223 257 258 253 247 245
69 84 331 115 157 162 146 74 106 93 59 122 124 144 183 175 150 154 156 159 156 161 174 188 204 203 212 208 210 206 202 202 216 218 231 234 232 230 237 229 229 240 249 241 251 267 281 272 266
23 50 359 350 130 142 119 92 15 98 100 55 56 110 146 147 153 154 149 153 164 172 181 195 214 211 213 212 218 224 221 215 211 221 232 234 232 232 235 240 239 238 253 251 253 257 261 271 270
69 71 43 0 56 134 112 88 130 80 120 70 82 85 137 151 159 165 170 174 188 204 202 199 207 219 220 227 226 227 233 231 225 221 219 225 231 233 235 247 251 250 251 250 252 255 258 265 271
326 156 350 351 48 43 95 88 94 53 108 193 167 162 163 167 173 179 195 201 209 219 209 212 212 211 216 223 230 231 234 240 228 229 225 225 227 231 233 242 239 240 249 257 255 254 257 264 269
321 329 355 177 27 21 57 113 50 104 175 132 158 164 164 176 187 195 205 213 214 218 222 221 219 219 220 222 231 239 239 239 240 233 229 226 229 230 227 239 239 252 257 256 261 253 257 259 264
191 254 10 139 103 4 359 98 173 330 178 135 146 157 169 188 198 208 210 207 215 212 218 227 230 226 228 227 227 231 239 240 246 241 240 236 234 234 232 233 239 247 252 249 256 255 254 255 260
274 112 304 233 169 189 170 260 69 260 196 208 183 191 201 205 197 185 201 211 215 216 216 222 231 241 237 234 233 234 233 239 242 241 239 240 238 239 239 240 243 245 246 250 253 255 255 257 258
105 47 351 242 190 223 158 283 225 229 269 233 211 215 219 217 206 189 206 233 231 227 229 224 230 238 239 246 244 237 239 238 238 241 242 240 238 240 243 242 244 245 246 249 250 250 252 253 254
135 81 129 266 190 229 140 245 250 244 236 235 228 227 232 244 211 197 210 229 234 244 246 245 246 241 241 245 253 249 243 242 242 241 243 241 239 240 240 246 246 247 248 250 251 251 252 255 256
291 182 202 277 217 197 182 234 233 242 236 247 234 227 231 255 236 213 223 235 256 191 186 182 224 284 290 279 265 258 257 248 247 247 240 243 245 245 246 246 249 248 249 250 253 256 256 262 264
198 209 230 210 264 205 227 238 252 264 269 253 244 237 247 230 237 251 258 154 152 174 207 253 274 285 284 277 274 269 252 251 251 246 246 241 247 246 248 249 249 244 246 249 251 253 257 261 270
197 204 211 279 291 223 225 231 238 248 275 263 259 256 241 251 261 263 130 126 151 177 325 330 316 307 299 288 288 284 254 245 251 254 249 256 246 249 254 256 255 249 245 248 252 252 254 260 264
234 257 263 287 260 236 280 267 258 249 249 239 230 235 237 246 226 134 124 106 73 37 15 357 338 322 312 300 282 274 283 255 246 254 259 261 248 262 256 256 255 256 252 250 252 255 253 254 259
215 224 204 235 311 266 321 276 253 246 244 249 242 233 216 216 213 155 122 104 76 49 33 20 347 332 319 312 305 269 270 253 235 251 245 245 255 263 262 259 261 262 251 249 255 258 259 247 245
226 184 214 249 301 255 94 282 265 283 271 260 240 232 222 214 137 134 130 108 91 67 51 28 353 355 354 346 337 299 256 200 93 120 161 203 215 221 228 245 255 262 262 255 260 264 262 260 251
227 174 220 216 213 261 256 294 282 253 295 256 237 229 226 194 143 140 130 117 92 75 68 59 20 28 30 30 33 83 107 119 115 115 115 108 101 103 99 93 93 101 104 87 85 72 349 308 268
153 94 48 42 82 249 221 214 221 236 243 253 226 210 155 130 125 116 119 111 96 92 83 72 57 53 54 65 70 79 101 106 111 108 102 91 83 78 71 66 63 57 50 39 52 65 62 59 65
151 122 329 208 212 238 212 205 246 258 261 236 220 177 160 143 137 139 132 122 117 109 106 94 82 64 66 76 86 92 98 110 109 110 108 100 86 75 69 71 69 64 68 75 78 77 65 61 60
182 179 166 196 213 238 189 234 247 222 243 207 180 161 147 149 149 146 149 145 142 130 129 122 107 90 88 94 88 96 111 113 109 108 110 103 94 88 90 90 88 88 88 87 83 81 75 69 67
201 207 177 59 11 63 236 293 303 213 220 156 160 158 176 169 162 157 152 152 153 153 147 142 143 120 108 99 105 101 104 110 110 110 111 107 109 102 100 97 97 93 94 92 84 81 76 75 66
177 143 186 207 213 250 245 244 236 358 241 215 199 204 186 172 164 157 148 158 167 164 155 159 162 145 139 130 118 110 109 111 114 114 106 106 107 111 108 102 96 88 88 89 89 89 81 79 76
175 188 210 182 202 206 250 249 219 228 238 215 225 207 188 183 174 164 163 172 171 171 171 166 169 159 150 142 136 133 124 120 120 117 114 111 112 109 105 105 98 88 84 84 85 79 83 81 80
209 193 188 195 219 236 270 260 165 140 119 195 232 200 198 181 165 168 172 174 177 180 181 180 173 167 163 159 152 143 140 137 129 121 118 117 110 106 103 99 95 93 90 89 87 85 83 76 72